Location: downtown San Diego
(32.7310°N, 117.1990°W)
Time: 18:02:27
(UTC-07:00)

OAO 2 Rocket - Pass Details

Date: 19 May 2017
Orbit: 677 x 746 km, 35.0° (Epoch: 26 May)

Event Time Altitude Azimuth Distance (km) Brightness Sun altitude
Rises 22:00:21 0° 251° (WSW) 3,031 6.9 -24.2°
Reaches altitude 10° 22:02:43 10° 251° (WSW) 2,125 6.1 -24.5°
Enters shadow 22:07:28 79° 213° (SSW) 709 3.2 -25.2°
